Rock Hill, SC

4:11 AM EDT on August 25, 2016 (GMT -0400)
Rock Hill-York County-Bryant

Weather History for KUZA - November, 2012

Change the Weather History Date:

Sunday, November 4, 2012

  Actual Average Record
Temperature  
Mean Temperature 54 °F -  
Max Temperature 63 °F 67 °F 84 °F (1961)
Min Temperature 46 °F 45 °F 25 °F (1966)
Degree Days  
Heating Degree Days 10    
Growing Degree Days 4 (Base 50)    
Moisture  
Dew Point 43 °F    
Average Humidity 67    
Maximum Humidity 90    
Minimum Humidity 48    
Precipitation  
Precipitation 0.01 in - - ()
Sea Level Pressure  
Sea Level Pressure 29.98 in    
Wind  
Wind Speed 2 mph (NE)    
Max Wind Speed 7 mph    
Max Gust Speed -    
Visibility 10 miles    
Events Rain    
Averages and records for this station are not official NWS values.
T = Trace of Precipitation, MM = Missing Value Source: NWS Daily Summary

Daily Weather History Graph

Daily Weather History Graph

Search for Another Location

Airport or City:

Trip Planner

Search our weather history database for the weather conditions in past years. The results will help you decide how hot, cold, wet, or windy it might be!

Date:

Astronomy

Nov. 04, 2012 Rise Set
Actual Time 6:48 AM EST 5:26 PM EST
Civil Twilight 6:22 AM EST 5:53 PM EST
Nautical Twilight 5:52 AM EST 6:23 PM EST
Astronomical Twilight 5:22 AM EST 6:52 PM EST
Moon 10:05 PM EST (11/4) 11:28 AM EST (11/4)
Length of Visible Light 11h 30m
Length of Day
10h 38m
Waning Gibbous, 72% of the Moon is Illuminated
Nov 4
Waning Gibbous
Nov 6
Last Quarter
Nov 13
New
Nov 20
First Quarter
Nov 28
Full

Hourly Weather History & Observations

Time (EST) Temp. Dew Point Humidity Pressure Visibility Wind Dir Wind Speed Gust Speed Precip Events Conditions
1:54 AM 48.0 °F 41.0 °F 77% 29.99 in 10.0 mi Calm Calm - N/A   Clear
1:54 AM 48.9 °F 41.0 °F 74% 29.97 in 10.0 mi Variable 3.5 mph - N/A   Clear
2:54 AM 46.9 °F 42.1 °F 83% 29.97 in 10.0 mi Calm Calm - N/A   Clear
3:54 AM 48.0 °F 41.0 °F 77% 29.96 in 10.0 mi NE 3.5 mph - N/A   Clear
4:54 AM 48.0 °F 39.9 °F 74% 29.96 in 10.0 mi Calm Calm - N/A   Clear
5:54 AM 46.9 °F 39.9 °F 77% 29.99 in 10.0 mi NE 4.6 mph - N/A   Clear
6:54 AM 48.0 °F 39.0 °F 71% 30.00 in 10.0 mi NE 4.6 mph - N/A   Clear
7:54 AM 50.0 °F 37.9 °F 63% 30.01 in 10.0 mi NE 3.5 mph - N/A   Clear
8:54 AM 52.0 °F 39.0 °F 61% 30.01 in 10.0 mi NE 5.8 mph - N/A   Clear
9:54 AM 57.0 °F 39.9 °F 53% 30.00 in 10.0 mi NNE 6.9 mph - N/A   Clear
10:54 AM 57.9 °F 39.9 °F 51% 30.01 in 10.0 mi NNE 6.9 mph - N/A   Clear
11:54 AM 60.1 °F 42.1 °F 51% 29.98 in 10.0 mi North 4.6 mph - N/A   Clear
12:54 PM 61.0 °F 42.1 °F 50% 29.96 in 10.0 mi NNE 4.6 mph - N/A   Unknown
1:54 PM 62.1 °F 42.1 °F 48% 29.96 in 10.0 mi Calm Calm - N/A   Clear
2:54 PM 63.0 °F 44.1 °F 50% 29.95 in 10.0 mi Calm Calm - N/A   Clear
3:54 PM 62.1 °F 44.1 °F 52% 29.95 in 10.0 mi NNE 3.5 mph - N/A   Clear
4:54 PM 60.1 °F 45.0 °F 57% 29.95 in 10.0 mi NNE 4.6 mph - N/A   Clear
5:54 PM 60.1 °F 45.0 °F 57% 29.95 in 10.0 mi Calm Calm - 0.00 in Rain Light Rain
6:54 PM 54.0 °F 51.1 °F 90% 29.97 in 8.0 mi SE 3.5 mph - 0.01 in   Overcast
7:54 PM 54.0 °F 50.0 °F 86% 29.98 in 9.0 mi Calm Calm - N/A   Overcast
8:54 PM 53.1 °F 48.0 °F 83% 29.99 in 10.0 mi Calm Calm - N/A   Overcast
9:54 PM 53.1 °F 46.9 °F 80% 29.98 in 10.0 mi ENE 3.5 mph - N/A   Mostly Cloudy
10:54 PM 53.1 °F 46.0 °F 77% 29.99 in 10.0 mi Calm Calm - N/A   Overcast